| time (UTC) | temp C | wind direction | speed KPH | gust KPH | rain 1hr cm | rain 24hr cm | rain mn cm | humidity % | barometer mb |
| 20260508145448 | 17 | 69 | 0.0 | 1.6 | 0.00 | 0.03 | 0.03 | 55 | 1020.0 |
| 20260508144945 | 17 | 56 | 1.6 | 3.2 | 0.00 | 0.03 | 0.03 | 56 | 1020.0 |
| 20260508144442 | 17 | 74 | 4.8 | 4.8 | 0.00 | 0.03 | 0.03 | 53 | 1020.2 |
| 20260508143940 | 16 | 152 | 3.2 | 4.8 | 0.00 | 0.03 | 0.03 | 56 | 1019.9 |
| 20260508143437 | 17 | 163 | 4.8 | 4.8 | 0.00 | 0.03 | 0.03 | 58 | 1020.1 |
| 20260508142933 | 16 | 152 | 0.0 | 1.6 | 0.00 | 0.03 | 0.03 | 56 | 1020.0 |
| 20260508142431 | 16 | 72 | 0.0 | 1.6 | 0.00 | 0.03 | 0.03 | 57 | 1019.9 |
| 20260508141927 | 16 | 133 | 3.2 | 3.2 | 0.00 | 0.03 | 0.03 | 57 | 1020.2 |
| 20260508141424 | 16 | 179 | 3.2 | 3.2 | 0.00 | 0.03 | 0.03 | 56 | 1020.1 |
| 20260508140921 | 16 | 189 | 3.2 | 4.8 | 0.00 | 0.03 | 0.03 | 59 | 1020.0 |
| 20260508140418 | 16 | 84 | 1.6 | 1.6 | 0.00 | 0.03 | 0.03 | 62 | 1020.0 |
| 20260508135914 | 16 | 31 | 3.2 | 3.2 | 0.00 | 0.03 | 0.03 | 67 | 1020.1 |
| 20260508135411 | 16 | 49 | 1.6 | 3.2 | 0.00 | 0.03 | 0.03 | 66 | 1019.8 |
| 20260508134907 | 16 | 28 | 1.6 | 1.6 | 0.00 | 0.03 | 0.03 | 68 | 1019.8 |
| 20260508134403 | 15 | 26 | 0.0 | 1.6 | 0.00 | 0.03 | 0.03 | 71 | 1019.9 |
| 20260508133900 | 15 | 126 | 1.6 | 1.6 | 0.00 | 0.03 | 0.03 | 71 | 1019.9 |
| 20260508133358 | 15 | 102 | 0.0 | 1.6 | 0.00 | 0.03 | 0.03 | 73 | 1020.1 |
| 20260508132855 | 15 | 114 | 1.6 | 1.6 | 0.00 | 0.03 | 0.03 | 72 | 1019.9 |
| 20260508132353 | 15 | 135 | 3.2 | 3.2 | 0.00 | 0.03 | 0.03 | 71 | 1019.8 |
| 20260508131849 | 15 | 149 | 0.0 | 0.0 | 0.00 | 0.03 | 0.03 | 72 | 1019.7 |
| 20260508131345 | 14 | 103 | 3.2 | 3.2 | 0.00 | 0.03 | 0.03 | 74 | 1019.6 |
| 20260508130842 | 12 | 103 | 1.6 | 1.6 | 0.00 | 0.03 | 0.03 | 83 | 1019.8 |
| 20260508130338 | 11 | 93 | 4.8 | 4.8 | 0.00 | 0.03 | 0.03 | 96 | 1019.7 |
| 20260508125835 | 11 | 101 | 0.0 | 1.6 | 0.00 | 0.03 | 0.03 | 99 | 1019.7 |
| 20260508125331 | 11 | 130 | 0.0 | 1.6 | 0.00 | 0.03 | 0.03 | 99 | 1019.4 |
| 20260508124829 | 11 | 75 | 0.0 | 1.6 | 0.00 | 0.03 | 0.03 | 99 | 1019.5 |
| 20260508124326 | 11 | 57 | 3.2 | 4.8 | 0.00 | 0.03 | 0.03 | 99 | 1019.5 |
| 20260508123824 | 11 | 78 | 1.6 | 1.6 | 0.00 | 0.03 | 0.03 | 99 | 1019.4 |
| 20260508123322 | 11 | 132 | 1.6 | 1.6 | 0.00 | 0.03 | 0.03 | 99 | 1019.5 |
| 20260508122818 | 11 | 132 | 1.6 | 1.6 | 0.00 | 0.03 | 0.03 | 99 | 1019.4 |
| 20260508122315 | 11 | 134 | 1.6 | 3.2 | 0.00 | 0.03 | 0.03 | 99 | 1019.5 |
| 20260508121812 | 11 | 156 | 0.0 | 0.0 | 0.00 | 0.03 | 0.03 | 99 | 1019.4 |
| 20260508121311 | 11 | 151 | 0.0 | 0.0 | 0.00 | 0.03 | 0.03 | 99 | 1019.4 |
| 20260508120808 | 11 | 113 | 0.0 | 1.6 | 0.00 | 0.03 | 0.03 | 99 | 1019.3 |
| 20260508120306 | 10 | 148 | 0.0 | 0.0 | 0.00 | 0.03 | 0.03 | 99 | 1019.2 |
| 20260508115803 | 10 | 77 | 1.6 | 1.6 | 0.00 | 0.03 | 0.03 | 99 | 1019.3 |
| 20260508115300 | 10 | 158 | 0.0 | 0.0 | 0.00 | 0.03 | 0.03 | 99 | 1019.4 |
| 20260508114757 | 11 | 137 | 0.0 | 1.6 | 0.00 | 0.03 | 0.03 | 99 | 1019.1 |
| 20260508114254 | 10 | 164 | 0.0 | 0.0 | 0.00 | 0.03 | 0.03 | 99 | 1019.0 |
| 20260508113750 | 8 | 173 | 0.0 | 0.0 | 0.00 | 0.03 | 0.03 | 99 | 1019.0 |
| 20260508113249 | 8 | 173 | 0.0 | 0.0 | 0.00 | 0.03 | 0.03 | 99 | 1018.7 |
| 20260508112744 | 8 | 162 | 0.0 | 0.0 | 0.00 | 0.03 | 0.03 | 99 | 1018.4 |
| 20260508112241 | 8 | 146 | 0.0 | 0.0 | 0.00 | 0.03 | 0.03 | 99 | 1018.4 |
| 20260508111738 | 8 | 140 | 1.6 | 1.6 | 0.00 | 0.03 | 0.03 | 99 | 1018.3 |
| 20260508111236 | 8 | 166 | 0.0 | 0.0 | 0.00 | 0.03 | 0.03 | 99 | 1018.5 |
| 20260508110732 | 8 | 166 | 0.0 | 0.0 | 0.00 | 0.03 | 0.03 | 99 | 1018.3 |
| 20260508110230 | 8 | 166 | 0.0 | 0.0 | 0.00 | 0.03 | 0.03 | 99 | 1018.5 |
| 20260508105729 | 8 | 166 | 0.0 | 0.0 | 0.00 | 0.03 | 0.03 | 99 | 1018.3 |
| 20260508105226 | 8 | 166 | 0.0 | 0.0 | 0.00 | 0.03 | 0.03 | 99 | 1018.3 |
| 20260508104724 | 8 | 166 | 0.0 | 0.0 | 0.00 | 0.03 | 0.03 | 99 | 1018.1 |
| 20260508104220 | 8 | 166 | 0.0 | 0.0 | 0.00 | 0.03 | 0.03 | 99 | 1018.1 |
| 20260508103718 | 8 | 166 | 0.0 | 0.0 | 0.00 | 0.03 | 0.03 | 99 | 1017.9 |
| 20260508103215 | 8 | 166 | 0.0 | 0.0 | 0.00 | 0.03 | 0.03 | 99 | 1017.5 |
| 20260508102712 | 8 | 166 | 0.0 | 0.0 | 0.00 | 0.03 | 0.03 | 99 | 1017.4 |
| 20260508102210 | 8 | 166 | 0.0 | 0.0 | 0.00 | 0.03 | 0.03 | 99 | 1017.6 |
| 20260508101707 | 8 | 166 | 0.0 | 0.0 | 0.00 | 0.03 | 0.03 | 99 | 1017.5 |
| 20260508101205 | 8 | 166 | 0.0 | 0.0 | 0.00 | 0.03 | 0.03 | 99 | 1017.3 |
| 20260508100702 | 8 | 166 | 0.0 | 0.0 | 0.00 | 0.03 | 0.03 | 99 | 1017.2 |
| 20260508100200 | 8 | 166 | 0.0 | 0.0 | 0.00 | 0.03 | 0.03 | 99 | 1017.4 |
| 20260508095656 | 8 | 166 | 0.0 | 0.0 | 0.00 | 0.03 | 0.03 | 99 | 1017.3 |
| 20260508095153 | 8 | 166 | 0.0 | 0.0 | 0.00 | 0.03 | 0.03 | 99 | 1017.5 |
| 20260508094650 | 8 | 166 | 0.0 | 0.0 | 0.00 | 0.03 | 0.03 | 99 | 1017.4 |
| 20260508094147 | 8 | 165 | 0.0 | 0.0 | 0.18 | 0.03 | 0.03 | 99 | 1017.2 |
| 20260508093644 | 8 | 166 | 0.0 | 0.0 | 0.18 | 0.03 | 0.03 | 99 | 1017.3 |
| 20260508093141 | 9 | 167 | 0.0 | 0.0 | 0.00 | 0.00 | 0.00 | 99 | 1017.3 |
| 20260508092638 | 9 | 167 | 0.0 | 0.0 | 0.00 | 0.00 | 0.00 | 99 | 1017.1 |
| 20260508092137 | 9 | 167 | 0.0 | 0.0 | 0.00 | 0.00 | 0.00 | 99 | 1017.2 |
| 20260508091634 | 9 | 167 | 0.0 | 0.0 | 0.00 | 0.00 | 0.00 | 99 | 1017.0 |
| 20260508091131 | 9 | 167 | 0.0 | 0.0 | 0.00 | 0.00 | 0.00 | 99 | 1017.1 |
| 20260508090629 | 9 | 168 | 0.0 | 0.0 | 0.00 | 0.00 | 0.00 | 99 | 1017.0 |
| 20260508090126 | 9 | 168 | 0.0 | 0.0 | 0.00 | 0.00 | 0.00 | 99 | 1017.1 |
| 20260508085622 | 9 | 168 | 0.0 | 0.0 | 0.00 | 0.00 | 0.00 | 99 | 1016.9 |
| 20260508085119 | 9 | 167 | 0.0 | 0.0 | 0.00 | 0.00 | 0.00 | 99 | 1016.8 |
| 20260508084615 | 10 | 167 | 0.0 | 0.0 | 0.00 | 0.00 | 0.00 | 99 | 1016.9 |
| 20260508084113 | 10 | 166 | 0.0 | 0.0 | 0.00 | 0.00 | 0.00 | 99 | 1016.9 |
| 20260508083610 | 10 | 169 | 0.0 | 0.0 | 0.00 | 0.00 | 0.00 | 99 | 1016.9 |
| 20260508083107 | 10 | 165 | 0.0 | 0.0 | 0.00 | 0.00 | 0.00 | 99 | 1016.7 |
| 20260508082603 | 10 | 134 | 1.6 | 1.6 | 0.00 | 0.00 | 0.00 | 99 | 1016.9 |
| 20260508082100 | 10 | 173 | 0.0 | 0.0 | 0.00 | 0.00 | 0.00 | 99 | 1016.7 |
| 20260508081558 | 10 | 178 | 0.0 | 0.0 | 0.00 | 0.00 | 0.00 | 99 | 1016.8 |
| 20260508081053 | 10 | 195 | 0.0 | 0.0 | 0.00 | 0.00 | 0.00 | 99 | 1016.9 |
| 20260508080552 | 10 | 196 | 0.0 | 0.0 | 0.00 | 0.00 | 0.00 | 99 | 1016.3 |
| 20260508080049 | 10 | 153 | 0.0 | 0.0 | 0.00 | 0.00 | 0.00 | 99 | 1016.5 |
| 20260508075545 | 10 | 157 | 0.0 | 0.0 | 0.00 | 0.00 | 0.00 | 99 | 1016.4 |
| 20260508075043 | 10 | 143 | 0.0 | 1.6 | 0.00 | 0.00 | 0.00 | 99 | 1016.3 |
| 20260508074540 | 10 | 73 | 1.6 | 1.6 | 0.00 | 0.00 | 0.00 | 99 | 1016.4 |
| 20260508074037 | 10 | 175 | 0.0 | 0.0 | 0.00 | 0.00 | 0.00 | 99 | 1016.5 |
| 20260508073534 | 10 | 193 | 0.0 | 0.0 | 0.00 | 0.00 | 0.00 | 99 | 1016.5 |
| 20260508073032 | 10 | 195 | 0.0 | 0.0 | 0.00 | 0.00 | 0.00 | 99 | 1016.3 |
| 20260508072527 | 10 | 196 | 0.0 | 0.0 | 0.00 | 0.00 | 0.00 | 99 | 1016.4 |
| 20260508072025 | 10 | 200 | 0.0 | 0.0 | 0.00 | 0.00 | 0.00 | 99 | 1016.4 |
| 20260508071523 | 10 | 173 | 0.0 | 0.0 | 0.00 | 0.00 | 0.00 | 99 | 1016.3 |
| 20260508071020 | 10 | 185 | 0.0 | 0.0 | 0.00 | 0.00 | 0.00 | 99 | 1016.3 |
| 20260508070518 | 10 | 194 | 0.0 | 0.0 | 0.00 | 0.00 | 0.00 | 99 | 1016.3 |
| 20260508070016 | 10 | 175 | 0.0 | 0.0 | 0.00 | 0.00 | 0.00 | 99 | 1016.3 |
| 20260508065513 | 10 | 175 | 0.0 | 0.0 | 0.00 | 0.00 | 0.00 | 99 | 1016.2 |
| 20260508065011 | 10 | 175 | 0.0 | 0.0 | 0.00 | 0.00 | 0.00 | 99 | 1015.9 |
| 20260508064509 | 10 | 175 | 0.0 | 0.0 | 0.00 | 0.00 | 0.00 | 99 | 1016.2 |
| 20260508064006 | 10 | 175 | 0.0 | 0.0 | 0.00 | 0.00 | 0.00 | 99 | 1016.1 |
| 20260508063503 | 10 | 175 | 0.0 | 0.0 | 0.00 | 0.00 | 0.00 | 99 | 1016.1 |
| 20260508063001 | 10 | 153 | 0.0 | 0.0 | 0.00 | 0.00 | 0.00 | 99 | 1016.0 |
| 20260508062459 | 11 | 179 | 0.0 | 0.0 | 0.00 | 0.00 | 0.00 | 99 | 1016.1 |
| 20260508061955 | 11 | 189 | 0.0 | 0.0 | 0.00 | 0.00 | 0.00 | 99 | 1016.1 |
| 20260508061453 | 11 | 160 | 0.0 | 0.0 | 0.00 | 0.00 | 0.00 | 99 | 1016.2 |
| 20260508060949 | 11 | 172 | 0.0 | 0.0 | 0.00 | 0.00 | 0.00 | 99 | 1016.3 |
| 20260508060447 | 11 | 166 | 0.0 | 0.0 | 0.00 | 0.00 | 0.00 | 99 | 1016.2 |
| 20260508055943 | 11 | 164 | 0.0 | 0.0 | 0.00 | 0.00 | 0.00 | 99 | 1016.1 |
| 20260508055439 | 11 | 178 | 0.0 | 0.0 | 0.00 | 0.00 | 0.00 | 99 | 1016.3 |
| 20260508054936 | 11 | 178 | 0.0 | 0.0 | 0.00 | 0.00 | 0.00 | 99 | 1016.3 |
| 20260508054433 | 11 | 178 | 0.0 | 0.0 | 0.00 | 0.00 | 0.00 | 99 | 1016.3 |
| 20260508053930 | 11 | 179 | 0.0 | 0.0 | 0.00 | 0.00 | 0.00 | 99 | 1016.1 |
| 20260508053427 | 11 | 179 | 0.0 | 0.0 | 0.00 | 0.00 | 0.00 | 99 | 1016.3 |
| 20260508052925 | 11 | 179 | 0.0 | 0.0 | 0.00 | 0.00 | 0.00 | 99 | 1016.1 |
| 20260508052417 | 11 | 189 | 0.0 | 0.0 | 0.00 | 0.00 | 0.00 | 99 | 1016.0 |
| 20260508051913 | 11 | 175 | 0.0 | 0.0 | 0.00 | 0.00 | 0.00 | 99 | 1016.0 |
| 20260508051409 | 11 | 174 | 0.0 | 0.0 | 0.00 | 0.00 | 0.00 | 99 | 1016.0 |
| 20260508050904 | 11 | 175 | 0.0 | 0.0 | 0.00 | 0.00 | 0.00 | 99 | 1016.1 |
| 20260508050402 | 11 | 175 | 0.0 | 0.0 | 0.00 | 0.00 | 0.00 | 99 | 1015.9 |
| 20260508045857 | 11 | 175 | 0.0 | 0.0 | 0.00 | 0.00 | 0.00 | 99 | 1016.0 |
| 20260508045356 | 11 | 175 | 0.0 | 0.0 | 0.00 | 0.00 | 0.00 | 99 | 1016.0 |
| 20260508044853 | 11 | 175 | 0.0 | 0.0 | 0.00 | 0.00 | 0.00 | 99 | 1015.7 |
| 20260508044349 | 11 | 174 | 0.0 | 0.0 | 0.00 | 0.00 | 0.00 | 99 | 1015.6 |
| 20260508043845 | 12 | 176 | 0.0 | 0.0 | 0.00 | 0.00 | 0.00 | 99 | 1015.7 |
| 20260508043342 | 12 | 174 | 0.0 | 0.0 | 0.00 | 0.00 | 0.00 | 99 | 1015.9 |
| 20260508042839 | 12 | 182 | 0.0 | 0.0 | 0.00 | 0.00 | 0.00 | 99 | 1015.7 |
| 20260508042337 | 12 | 156 | 0.0 | 0.0 | 0.00 | 0.00 | 0.00 | 99 | 1015.8 |
| 20260508041834 | 12 | 171 | 0.0 | 0.0 | 0.00 | 0.00 | 0.00 | 99 | 1015.6 |
| 20260508041330 | 12 | 195 | 0.0 | 0.0 | 0.00 | 0.00 | 0.00 | 99 | 1015.6 |
| 20260508040827 | 12 | 183 | 0.0 | 0.0 | 0.00 | 0.00 | 0.00 | 99 | 1015.7 |
| 20260508040324 | 12 | 182 | 0.0 | 0.0 | 0.00 | 0.00 | 0.00 | 99 | 1015.7 |
| 20260508035821 | 12 | 183 | 0.0 | 0.0 | 0.00 | 4.90 | 4.90 | 99 | 1015.3 |
| 20260508035319 | 12 | 182 | 0.0 | 0.0 | 0.00 | 4.90 | 4.90 | 99 | 1015.7 |
| 20260508034815 | 12 | 186 | 0.0 | 0.0 | 0.00 | 4.90 | 4.90 | 99 | 1015.6 |
| 20260508034313 | 12 | 192 | 0.0 | 0.0 | 0.00 | 4.90 | 4.90 | 99 | 1015.6 |
| 20260508033809 | 12 | 166 | 0.0 | 0.0 | 0.00 | 4.90 | 4.90 | 99 | 1015.3 |
| 20260508033308 | 12 | 174 | 0.0 | 0.0 | 0.00 | 4.90 | 4.90 | 99 | 1015.6 |
| 20260508032805 | 12 | 174 | 0.0 | 0.0 | 0.00 | 4.90 | 4.90 | 99 | 1015.8 |
| 20260508032306 | 12 | 152 | 0.0 | 0.0 | 0.00 | 4.90 | 4.90 | 99 | 1015.6 |
| 20260508031758 | 13 | 163 | 0.0 | 1.6 | 0.00 | 4.90 | 4.90 | 99 | 1015.6 |
| 20260508031255 | 13 | 182 | 0.0 | 0.0 | 0.00 | 4.90 | 4.90 | 99 | 1015.6 |
| 20260508030751 | 13 | 182 | 0.0 | 0.0 | 0.00 | 4.90 | 4.90 | 99 | 1015.6 |
| 20260508030249 | 13 | 184 | 0.0 | 0.0 | 0.00 | 4.90 | 4.90 | 99 | 1015.3 |
| 20260508025745 | 13 | 184 | 0.0 | 0.0 | 0.00 | 4.90 | 4.90 | 99 | 1015.4 |
| 20260508025242 | 13 | 184 | 0.0 | 0.0 | 0.00 | 4.90 | 4.90 | 99 | 1015.3 |
| 20260508024738 | 13 | 179 | 0.0 | 0.0 | 0.00 | 4.90 | 4.90 | 99 | 1015.3 |
| 20260508024235 | 13 | 204 | 0.0 | 0.0 | 0.00 | 4.90 | 4.90 | 99 | 1015.3 |
| 20260508023732 | 13 | 186 | 0.0 | 0.0 | 0.00 | 4.90 | 4.90 | 99 | 1015.1 |
| 20260508023230 | 13 | 192 | 0.0 | 0.0 | 0.00 | 4.90 | 4.90 | 99 | 1015.3 |
| 20260508022726 | 13 | 143 | 0.0 | 0.0 | 0.00 | 4.90 | 4.90 | 99 | 1015.2 |
| 20260508022222 | 13 | 164 | 0.0 | 0.0 | 0.00 | 4.90 | 4.90 | 99 | 1015.1 |
| 20260508021719 | 13 | 185 | 0.0 | 0.0 | 0.00 | 4.90 | 4.90 | 99 | 1014.9 |
| 20260508021214 | 13 | 185 | 0.0 | 0.0 | 0.00 | 4.90 | 4.90 | 99 | 1014.8 |
| 20260508020712 | 13 | 210 | 1.6 | 1.6 | 0.00 | 4.90 | 4.90 | 99 | 1014.8 |
| 20260508020209 | 13 | 183 | 0.0 | 0.0 | 0.00 | 4.90 | 4.90 | 99 | 1014.8 |
| 20260508015706 | 13 | 166 | 0.0 | 0.0 | 0.00 | 4.90 | 4.90 | 99 | 1014.9 |
| 20260508015203 | 13 | 164 | 0.0 | 0.0 | 0.00 | 4.90 | 4.90 | 99 | 1014.8 |
| 20260508014700 | 13 | 163 | 0.0 | 0.0 | 0.00 | 4.90 | 4.90 | 99 | 1014.4 |
| 20260508014156 | 13 | 130 | 0.0 | 1.6 | 0.00 | 4.90 | 4.90 | 99 | 1014.4 |
| 20260508013652 | 13 | 191 | 0.0 | 0.0 | 0.00 | 4.90 | 4.90 | 99 | 1014.5 |
| 20260508013149 | 13 | 135 | 0.0 | 0.0 | 0.00 | 4.90 | 4.90 | 99 | 1014.1 |
| 20260508012647 | 13 | 67 | 0.0 | 1.6 | 0.00 | 4.90 | 4.90 | 99 | 1014.1 |
| 20260508012143 | 14 | 59 | 1.6 | 3.2 | 0.00 | 4.90 | 4.90 | 99 | 1014.4 |
| 20260508011642 | 13 | 211 | 1.6 | 1.6 | 0.00 | 4.90 | 4.90 | 99 | 1014.4 |
| 20260508011139 | 13 | 179 | 1.6 | 1.6 | 0.00 | 4.90 | 4.90 | 99 | 1014.3 |
| 20260508010636 | 13 | 171 | 1.6 | 3.2 | 0.00 | 4.90 | 4.90 | 99 | 1014.1 |
| 20260508010134 | 13 | 200 | 1.6 | 1.6 | 0.00 | 4.90 | 4.90 | 99 | 1013.8 |
| 20260508005630 | 13 | 145 | 0.0 | 0.0 | 0.00 | 4.90 | 4.90 | 99 | 1013.6 |
| 20260508005127 | 13 | 136 | 0.0 | 0.0 | 0.00 | 4.90 | 4.90 | 99 | 1013.5 |
| 20260508004622 | 13 | 141 | 0.0 | 0.0 | 0.00 | 4.90 | 4.90 | 99 | 1013.4 |
| 20260508004119 | 13 | 103 | 0.0 | 0.0 | 0.00 | 4.90 | 4.90 | 99 | 1013.1 |
| 20260508003616 | 13 | 51 | 3.2 | 3.2 | 0.00 | 4.90 | 4.90 | 99 | 1013.1 |
| 20260508003114 | 13 | 50 | 4.8 | 4.8 | 0.00 | 4.90 | 4.90 | 99 | 1013.2 |
| 20260508002610 | 13 | 49 | 1.6 | 1.6 | 0.00 | 4.90 | 4.90 | 99 | 1013.2 |
| 20260508002108 | 13 | 131 | 3.2 | 3.2 | 0.00 | 4.90 | 4.90 | 99 | 1013.0 |
| 20260508001608 | 13 | 66 | 4.8 | 8.0 | 0.00 | 4.90 | 4.90 | 99 | 1012.4 |
| 20260508001104 | 13 | 12 | 4.8 | 4.8 | 0.00 | 4.90 | 4.90 | 99 | 1012.5 |
| 20260508000600 | 14 | 64 | 4.8 | 8.0 | 0.00 | 4.90 | 4.90 | 99 | 1012.2 |
| 20260508000057 | 14 | 56 | 1.6 | 1.6 | 0.00 | 4.90 | 4.90 | 99 | 1012.7 |
| 20260507235554 | 14 | 86 | 1.6 | 3.2 | 0.00 | 4.90 | 4.90 | 99 | 1012.4 |
| 20260507235052 | 14 | 152 | 1.6 | 1.6 | 0.00 | 4.90 | 4.90 | 99 | 1012.0 |
| 20260507234548 | 14 | 253 | 0.0 | 1.6 | 0.00 | 4.90 | 4.90 | 99 | 1011.9 |
| 20260507234044 | 14 | 49 | 4.8 | 8.0 | 0.00 | 4.90 | 4.90 | 99 | 1011.7 |
| 20260507233541 | 14 | 316 | 3.2 | 3.2 | 0.00 | 4.90 | 4.90 | 99 | 1011.9 |
| 20260507233040 | 14 | 43 | 3.2 | 4.8 | 0.00 | 4.90 | 4.90 | 99 | 1011.9 |
| 20260507232536 | 15 | 60 | 3.2 | 4.8 | 0.00 | 4.90 | 4.90 | 99 | 1011.8 |
| 20260507232033 | 14 | 40 | 1.6 | 3.2 | 0.00 | 4.90 | 4.90 | 99 | 1011.8 |
| 20260507231529 | 14 | 81 | 1.6 | 1.6 | 0.00 | 4.90 | 4.90 | 99 | 1011.8 |
| 20260507231027 | 14 | 114 | 0.0 | 1.6 | 0.00 | 4.90 | 4.90 | 99 | 1011.6 |
| 20260507230524 | 14 | 31 | 4.8 | 8.0 | 0.00 | 4.90 | 4.90 | 99 | 1011.4 |
| 20260507230020 | 14 | 10 | 1.6 | 3.2 | 0.00 | 4.90 | 4.90 | 99 | 1011.3 |
| 20260507225515 | 14 | 29 | 6.4 | 9.7 | 0.00 | 4.90 | 4.90 | 99 | 1011.3 |
| 20260507225012 | 14 | 66 | 4.8 | 9.7 | 0.13 | 4.90 | 4.90 | 99 | 1011.0 |
| 20260507224508 | 15 | 94 | 6.4 | 8.0 | 0.43 | 4.90 | 4.90 | 99 | 1011.1 |
| 20260507224004 | 15 | 38 | 4.8 | 8.0 | 1.68 | 4.88 | 4.88 | 99 | 1011.0 |
| 20260507223500 | 15 | 89 | 3.2 | 4.8 | 2.77 | 4.80 | 4.80 | 99 | 1011.0 |
| 20260507222958 | 15 | 70 | 8.0 | 11.3 | 1.80 | 4.52 | 4.52 | 99 | 1011.5 |
| 20260507222454 | 15 | 112 | 6.4 | 8.0 | 1.50 | 4.34 | 4.34 | 99 | 1010.8 |
| 20260507221951 | 15 | 116 | 3.2 | 8.0 | 2.64 | 4.22 | 4.22 | 99 | 1010.8 |
| 20260507221447 | 15 | 71 | 1.6 | 3.2 | 5.82 | 4.09 | 4.09 | 99 | 1010.7 |
| 20260507220944 | 15 | 68 | 3.2 | 4.8 | 4.85 | 3.78 | 3.78 | 99 | 1011.0 |
| 20260507220442 | 15 | 73 | 4.8 | 4.8 | 1.37 | 3.12 | 3.12 | 99 | 1010.4 |
| 20260507215938 | 16 | 25 | 9.7 | 17.7 | 1.50 | 2.97 | 2.97 | 99 | 1010.1 |
| 20260507215435 | 16 | 96 | 1.6 | 1.6 | 2.59 | 2.90 | 2.90 | 99 | 1010.2 |
| 20260507214932 | 16 | 310 | 3.2 | 3.2 | 3.25 | 2.72 | 2.72 | 98 | 1010.3 |
| 20260507214425 | 16 | 339 | 4.8 | 8.0 | 1.98 | 2.46 | 2.46 | 96 | 1010.8 |
| 20260507213920 | 16 | 93 | 6.4 | 8.0 | 0.30 | 2.18 | 2.18 | 94 | 1009.3 |
| 20260507213417 | 17 | 92 | 4.8 | 9.7 | 0.00 | 2.13 | 2.13 | 91 | 1009.3 |
| 20260507212914 | 17 | 33 | 3.2 | 4.8 | 0.00 | 2.13 | 2.13 | 91 | 1009.0 |
| 20260507212409 | 17 | 10 | 8.0 | 9.7 | 0.00 | 2.13 | 2.13 | 91 | 1008.8 |
| 20260507211906 | 18 | 48 | 6.4 | 8.0 | 0.00 | 2.13 | 2.13 | 88 | 1008.8 |
| 20260507211402 | 19 | 347 | 6.4 | 11.3 | 0.00 | 2.13 | 2.13 | 85 | 1009.3 |
| 20260507210859 | 21 | 40 | 24.1 | 35.4 | 0.00 | 2.13 | 2.13 | 80 | 1007.8 |
| 20260507210356 | 23 | 268 | 4.8 | 9.7 | 0.00 | 2.13 | 2.13 | 77 | 1008.5 |
| 20260507205853 | 24 | 47 | 1.6 | 1.6 | 0.00 | 2.13 | 2.13 | 75 | 1008.4 |
| 20260507205350 | 23 | 159 | 0.0 | 0.0 | 0.00 | 2.13 | 2.13 | 71 | 1008.1 |
| 20260507204847 | 24 | 184 | 3.2 | 3.2 | 0.00 | 2.13 | 2.13 | 70 | 1008.4 |
| 20260507204343 | 24 | 190 | 1.6 | 1.6 | 0.00 | 2.13 | 2.13 | 70 | 1008.5 |
| 20260507203841 | 23 | 210 | 0.0 | 0.0 | 0.00 | 2.13 | 2.13 | 69 | 1008.7 |
| 20260507203338 | 23 | 212 | 1.6 | 1.6 | 0.00 | 2.13 | 2.13 | 70 | 1008.6 |
| 20260507202834 | 23 | 193 | 1.6 | 1.6 | 0.00 | 2.13 | 2.13 | 70 | 1008.6 |
| 20260507202331 | 23 | 206 | 3.2 | 3.2 | 0.00 | 2.13 | 2.13 | 70 | 1008.7 |
| 20260507201826 | 23 | 162 | 4.8 | 4.8 | 0.00 | 2.13 | 2.13 | 70 | 1008.8 |
| 20260507201322 | 24 | 214 | 4.8 | 4.8 | 0.00 | 2.13 | 2.13 | 71 | 1009.0 |
| 20260507200819 | 24 | 189 | 4.8 | 4.8 | 0.00 | 2.13 | 2.13 | 70 | 1008.7 |
| 20260507200314 | 24 | 219 | 1.6 | 3.2 | 0.00 | 2.13 | 2.13 | 68 | 1009.0 |
| 20260507195811 | 24 | 284 | 3.2 | 4.8 | 0.00 | 2.13 | 2.13 | 68 | 1008.9 |
| 20260507195308 | 25 | 211 | 1.6 | 3.2 | 0.00 | 2.13 | 2.13 | 68 | 1009.0 |
| 20260507194806 | 25 | 196 | 4.8 | 8.0 | 0.00 | 2.13 | 2.13 | 69 | 1009.2 |
| 20260507194301 | 24 | 198 | 1.6 | 1.6 | 0.00 | 2.13 | 2.13 | 73 | 1008.9 |
| 20260507193758 | 25 | 219 | 6.4 | 8.0 | 0.00 | 2.13 | 2.13 | 68 | 1009.1 |
| 20260507193255 | 25 | 199 | 8.0 | 11.3 | 0.00 | 2.13 | 2.13 | 71 | 1009.5 |
| 20260507192751 | 25 | 224 | 3.2 | 3.2 | 0.00 | 2.13 | 2.13 | 72 | 1009.3 |
| 20260507192248 | 24 | 355 | 8.0 | 9.7 | 0.00 | 2.13 | 2.13 | 72 | 1009.6 |
| 20260507191744 | 24 | 228 | 4.8 | 4.8 | 0.00 | 2.13 | 2.13 | 73 | 1009.5 |
| 20260507191241 | 24 | 253 | 6.4 | 8.0 | 0.00 | 2.13 | 2.13 | 71 | 1009.4 |
| 20260507190738 | 24 | 308 | 1.6 | 3.2 | 0.00 | 2.13 | 2.13 | 70 | 1009.5 |
| 20260507190236 | 24 | 283 | 4.8 | 4.8 | 0.00 | 2.13 | 2.13 | 74 | 1009.7 |
| 20260507185735 | 23 | 213 | 6.4 | 8.0 | 0.00 | 2.13 | 2.13 | 75 | 1009.7 |
| 20260507185231 | 23 | 272 | 4.8 | 9.7 | 0.00 | 2.13 | 2.13 | 74 | 1009.7 |
| 20260507184729 | 23 | 335 | 4.8 | 4.8 | 0.00 | 2.13 | 2.13 | 75 | 1009.9 |
| 20260507184227 | 23 | 250 | 4.8 | 4.8 | 0.00 | 2.13 | 2.13 | 76 | 1009.9 |
| 20260507183723 | 23 | 218 | 0.0 | 1.6 | 0.00 | 2.13 | 2.13 | 78 | 1009.7 |
| 20260507183220 | 22 | 202 | 4.8 | 4.8 | 0.00 | 2.13 | 2.13 | 78 | 1009.8 |
| 20260507182718 | 22 | 333 | 6.4 | 9.7 | 0.00 | 2.13 | 2.13 | 77 | 1009.6 |
| 20260507182212 | 22 | 234 | 6.4 | 9.7 | 0.00 | 2.13 | 2.13 | 79 | 1009.6 |
| 20260507181709 | 22 | 224 | 6.4 | 8.0 | 0.00 | 2.13 | 2.13 | 79 | 1009.9 |
| 20260507181206 | 22 | 232 | 1.6 | 3.2 | 0.00 | 2.13 | 2.13 | 80 | 1009.6 |
| 20260507180702 | 22 | 336 | 8.0 | 9.7 | 0.00 | 2.13 | 2.13 | 79 | 1009.9 |
| 20260507180159 | 21 | 274 | 6.4 | 9.7 | 0.00 | 2.13 | 2.13 | 81 | 1009.9 |
| 20260507175655 | 21 | 223 | 1.6 | 3.2 | 0.00 | 2.13 | 2.13 | 84 | 1010.2 |
| 20260507175147 | 21 | 175 | 1.6 | 3.2 | 0.00 | 2.13 | 2.13 | 86 | 1010.4 |
| 20260507174644 | 21 | 259 | 4.8 | 8.0 | 0.00 | 2.13 | 2.13 | 86 | 1010.4 |
| 20260507174142 | 21 | 247 | 6.4 | 8.0 | 0.00 | 2.13 | 2.13 | 85 | 1010.7 |
| 20260507173638 | 21 | 217 | 0.0 | 1.6 | 0.00 | 2.13 | 2.13 | 88 | 1010.5 |
| 20260507173135 | 21 | 195 | 0.0 | 1.6 | 0.00 | 2.13 | 2.13 | 91 | 1010.9 |
| 20260507172631 | 21 | 335 | 3.2 | 3.2 | 0.00 | 2.13 | 2.13 | 91 | 1010.8 |
| 20260507172129 | 20 | 227 | 1.6 | 3.2 | 0.00 | 2.13 | 2.13 | 91 | 1010.7 |
| 20260507171624 | 20 | 209 | 0.0 | 0.0 | 0.00 | 2.13 | 2.13 | 93 | 1010.3 |
| 20260507171121 | 20 | 232 | 3.2 | 3.2 | 0.00 | 2.13 | 2.13 | 94 | 1010.7 |
| 20260507170618 | 19 | 227 | 3.2 | 3.2 | 0.00 | 2.13 | 2.13 | 96 | 1010.5 |
| 20260507170115 | 19 | 218 | 1.6 | 1.6 | 0.00 | 2.13 | 2.13 | 98 | 1010.9 |
| 20260507165611 | 19 | 325 | 4.8 | 4.8 | 0.00 | 2.13 | 2.13 | 99 | 1011.0 |
| 20260507165107 | 19 | 195 | 0.0 | 0.0 | 0.00 | 2.13 | 2.13 | 99 | 1011.0 |
| 20260507164604 | 19 | 311 | 4.8 | 4.8 | 0.00 | 2.13 | 2.13 | 99 | 1010.8 |
| 20260507164100 | 18 | 213 | 1.6 | 1.6 | 0.00 | 2.13 | 2.13 | 99 | 1010.4 |
| 20260507163558 | 19 | 227 | 1.6 | 3.2 | 0.00 | 2.13 | 2.13 | 99 | 1010.8 |
| 20260507163056 | 18 | 295 | 3.2 | 3.2 | 0.00 | 2.13 | 2.13 | 99 | 1010.9 |
| 20260507162555 | 18 | 211 | 1.6 | 1.6 | 0.00 | 2.13 | 2.13 | 99 | 1010.8 |
| 20260507162053 | 18 | 201 | 0.0 | 1.6 | 0.00 | 2.13 | 2.13 | 99 | 1011.0 |
| 20260507161549 | 18 | 153 | 0.0 | 1.6 | 0.00 | 2.13 | 2.13 | 99 | 1011.0 |
| 20260507161046 | 18 | 222 | 1.6 | 3.2 | 0.00 | 2.13 | 2.13 | 99 | 1011.3 |
| 20260507160542 | 19 | 239 | 0.0 | 1.6 | 0.00 | 2.13 | 2.13 | 99 | 1011.4 |
| 20260507160038 | 18 | 273 | 3.2 | 3.2 | 0.00 | 2.13 | 2.13 | 99 | 1011.3 |
| 20260507155534 | 18 | 219 | 1.6 | 3.2 | 0.00 | 2.13 | 2.13 | 99 | 1010.7 |
| 20260507155031 | 18 | 263 | 3.2 | 3.2 | 0.00 | 2.13 | 2.13 | 99 | 1010.9 |
| 20260507154528 | 18 | 324 | 3.2 | 3.2 | 0.00 | 2.13 | 2.13 | 99 | 1010.9 |
| 20260507154025 | 18 | 208 | 0.0 | 0.0 | 0.00 | 2.13 | 2.13 | 99 | 1010.7 |
| 20260507153521 | 18 | 312 | 4.8 | 4.8 | 0.00 | 2.13 | 2.13 | 99 | 1010.2 |
| 20260507153018 | 18 | 96 | 0.0 | 1.6 | 0.00 | 2.13 | 2.13 | 99 | 1009.9 |
| 20260507152513 | 18 | 172 | 1.6 | 1.6 | 0.00 | 2.13 | 2.13 | 99 | 1009.8 |
| 20260507152010 | 18 | 156 | 1.6 | 3.2 | 0.00 | 2.13 | 2.13 | 99 | 1009.7 |
| 20260507151507 | 18 | 172 | 1.6 | 1.6 | 0.00 | 2.13 | 2.13 | 99 | 1010.1 |
| 20260507151004 | 18 | 184 | 0.0 | 0.0 | 0.00 | 2.13 | 2.13 | 99 | 1010.3 |
| 20260507150500 | 18 | 186 | 0.0 | 0.0 | 0.00 | 2.13 | 2.13 | 99 | 1010.5 |
| 20260507145956 | 18 | 190 | 0.0 | 0.0 | 0.13 | 2.13 | 2.13 | 99 | 1010.9 |